Change the Weather History Date:

Sunday, January 5, 2014

  Actual Average (KCUT) Record (KCUT)
Temperature  
Mean Temperature -4 °F 24 °F  
Max Temperature 8 °F 35 °F 58 °F (2012)
Min Temperature -16 °F 13 °F -22 °F (1970)
Degree Days  
Heating Degree Days 69 41  
Month to date heating degree days 205  
Since 1 July heating degree days 3675  
Cooling Degree Days 0 0  
Month to date cooling degree days 0  
Year to date cooling degree days 0  
Moisture  
Dew Point -15 °F    
Average Humidity 64    
Maximum Humidity 79    
Minimum Humidity 46    
Precipitation  
Precipitation 0.00 in 0.01 in 1.00 in (1949)
Month to date precipitation 0.05  
Year to date precipitation 0.05  
Sea Level Pressure  
Sea Level Pressure 30.30 in    
Wind  
Wind Speed 12 mph (NNW)    
Max Wind Speed 32 mph    
Max Gust Speed 39 mph    
Visibility 10 miles    
Events      
T = Trace of Precipitation, MM = Missing Value Source: NWS Daily Summary

Daily Weather History Graph

Daily Weather History Graph

Search for Another Location

Airport or City:

Trip Planner

Search our weather history database for the weather conditions in past years. The results will help you decide how hot, cold, wet, or windy it might be!

Date:

Astronomy

Jan. 05, 2014 Rise Set
Actual Time 7:31 AM MST 4:34 PM MST
Civil Twilight 6:58 AM MST 5:06 PM MST
Nautical Twilight 6:22 AM MST 5:43 PM MST
Astronomical Twilight 5:47 AM MST 6:17 PM MST
Moon 10:03 AM MST 10:16 PM MST
Length of Visible Light 10h 07m
Length of Day
9h 02m
Waxing Crescent, 25% of the Moon is Illuminated
Jan 5
Waxing Crescent
Jan 7
First Quarter
Jan 15
Full
Jan 23
Last Quarter
Jan 30
New

Hourly Weather History & Observations

Time (MST) Temp. Windchill Dew Point Humidity Pressure Visibility Wind Dir Wind Speed Gust Speed Precip Events Conditions
12:15 AM 8.6 °F -5.5 °F -0.4 °F 67% 30.13 in 10.0 mi NNW 10.4 mph - N/A   Clear
12:35 AM 8.6 °F -3.7 °F -0.4 °F 67% 30.13 in 10.0 mi NNW 8.1 mph - N/A   Clear
12:55 AM 8.6 °F -4.7 °F -0.4 °F 67% 30.14 in 10.0 mi NW 9.2 mph - N/A   Clear
1:15 AM 6.8 °F -5.9 °F 1.4 °F 79% 30.14 in 10.0 mi WNW 8.1 mph - N/A   Clear
1:35 AM 6.8 °F -5.9 °F 1.4 °F 79% 30.15 in 10.0 mi NW 8.1 mph - N/A   Clear
1:55 AM 6.8 °F -6.9 °F 1.4 °F 79% 30.16 in 10.0 mi NW 9.2 mph - N/A   Clear
2:15 AM 6.8 °F -6.9 °F 1.4 °F 79% 30.16 in 10.0 mi NW 9.2 mph - N/A   Clear
2:35 AM 5.0 °F -12.3 °F -0.4 °F 78% 30.17 in 10.0 mi NW 13.8 mph - N/A   Clear
2:55 AM 5.0 °F - -2.2 °F 72% 30.19 in 10.0 mi North - - N/A   Clear
3:15 AM 5.0 °F - -2.2 °F 72% 30.19 in 10.0 mi North - - N/A   Clear
3:35 AM 3.2 °F -13.9 °F -2.2 °F 78% 30.19 in 10.0 mi NNW 12.7 mph 16.1 mph N/A   Clear
3:55 AM 3.2 °F -10.3 °F -4.0 °F 72% 30.20 in 10.0 mi NNW 8.1 mph 19.6 mph N/A   Clear
4:15 AM 3.2 °F -11.3 °F -4.0 °F 72% 30.19 in 10.0 mi NNW 9.2 mph 17.3 mph N/A   Clear
4:35 AM 3.2 °F -13.9 °F -2.2 °F 78% 30.20 in 10.0 mi NNW 12.7 mph 18.4 mph N/A   Clear
4:55 AM 3.2 °F -13.9 °F -2.2 °F 78% 30.20 in 10.0 mi NNW 12.7 mph 16.1 mph N/A   Clear
5:15 AM 1.4 °F -14.5 °F -4.0 °F 78% 30.20 in 10.0 mi NNW 10.4 mph - N/A   Scattered Clouds
5:35 AM 1.4 °F - -4.0 °F 78% 30.20 in 10.0 mi North - - N/A   Scattered Clouds
5:55 AM 1.4 °F -15.3 °F -4.0 °F 78% 30.20 in 10.0 mi NNW 11.5 mph - N/A   Scattered Clouds
6:15 AM 1.4 °F - -4.0 °F 78% 30.20 in 10.0 mi North - - N/A   Mostly Cloudy
6:35 AM 3.2 °F - -4.0 °F 72% 30.20 in 10.0 mi North - - N/A   Mostly Cloudy
6:55 AM 1.4 °F - -5.8 °F 72% 30.20 in 10.0 mi North - - N/A   Scattered Clouds
7:15 AM 1.4 °F - -9.4 °F 61% 30.20 in 10.0 mi North - - N/A   Clear
7:35 AM 1.4 °F -22.7 °F -7.6 °F 66% 30.22 in 10.0 mi NNW 26.5 mph 38.0 mph N/A   Clear
7:55 AM -0.4 °F - -9.4 °F 66% 30.24 in 10.0 mi North - - N/A   Clear
8:15 AM -0.4 °F - -9.4 °F 66% 30.24 in 10.0 mi North - - N/A   Clear
8:35 AM -0.4 °F - -9.4 °F 66% 30.27 in 10.0 mi North - - N/A   Clear
8:55 AM -0.4 °F - -9.4 °F 66% 30.28 in 10.0 mi North - - N/A   Clear
9:15 AM -0.4 °F -21.7 °F -7.6 °F 72% 30.29 in 7.0 mi NW 18.4 mph - N/A   Scattered Clouds
9:35 AM -0.4 °F - -9.4 °F 66% 30.30 in 7.0 mi North - - N/A   Overcast
9:55 AM -0.4 °F -25.2 °F -11.2 °F 60% 30.31 in 5.0 mi NW 26.5 mph 34.5 mph N/A   Haze
10:15 AM -2.2 °F -27.1 °F -11.2 °F 66% 30.32 in 4.0 mi NW 25.3 mph 34.5 mph N/A   Haze
10:35 AM -2.2 °F -27.6 °F -13.0 °F 60% 30.32 in 10.0 mi NNW 26.5 mph 35.7 mph N/A   Scattered Clouds
10:55 AM -4.0 °F -32.0 °F -16.6 °F 55% 30.34 in 10.0 mi NNW 32.2 mph 39.1 mph N/A   Clear
11:15 AM -4.0 °F -28.6 °F -16.6 °F 55% 30.35 in 10.0 mi NW 23.0 mph 33.4 mph N/A   Clear
11:35 AM -5.8 °F - -16.6 °F 60% 30.35 in 10.0 mi North - - N/A   Scattered Clouds
11:55 AM -5.8 °F -31.5 °F -16.6 °F 60% 30.36 in 10.0 mi NNW 24.2 mph - N/A   Scattered Clouds
12:15 PM -5.8 °F - -22.0 °F 46% 30.35 in 10.0 mi North - - N/A   Clear
12:35 PM -7.6 °F - -22.0 °F 50% 30.35 in 10.0 mi North - - N/A   Clear
12:55 PM -7.6 °F - -22.0 °F 50% 30.36 in 10.0 mi North - - N/A   Clear
1:15 PM -7.6 °F - -22.0 °F 50% 30.36 in 10.0 mi North - - N/A   Clear
1:35 PM -7.6 °F - -22.0 °F 50% 30.37 in 10.0 mi North - - N/A   Clear
1:55 PM -9.4 °F - -23.8 °F 49% 30.37 in 10.0 mi North - - N/A   Clear
2:15 PM -9.4 °F - -23.8 °F 49% 30.37 in 10.0 mi North - - N/A   Clear
2:35 PM -9.4 °F - -23.8 °F 49% 30.38 in 10.0 mi North - - N/A   Clear
2:55 PM -9.4 °F - -23.8 °F 49% 30.38 in 10.0 mi North - - N/A   Clear
3:15 PM -9.4 °F - -23.8 °F 49% 30.39 in 10.0 mi North - - N/A   Clear
3:35 PM -9.4 °F - -23.8 °F 49% 30.41 in 10.0 mi North - - N/A   Clear
3:55 PM -11.2 °F - -23.8 °F 54% 30.41 in 10.0 mi North - - N/A   Clear
4:15 PM -11.2 °F - -23.8 °F 54% 30.41 in 10.0 mi North - - N/A   Clear
4:35 PM -13.0 °F - -23.8 °F 59% 30.42 in 10.0 mi North - - N/A   Clear
4:55 PM -13.0 °F -38.2 °F -23.8 °F 59% 30.42 in 10.0 mi NNW 18.4 mph 24.2 mph N/A   Clear
5:15 PM -13.0 °F -38.2 °F -23.8 °F 59% 30.41 in 10.0 mi NNW 18.4 mph - N/A   Clear
5:35 PM -13.0 °F -38.8 °F -23.8 °F 59% 30.41 in 10.0 mi NNW 19.6 mph 24.2 mph N/A   Clear
5:55 PM -13.0 °F -37.5 °F -23.8 °F 59% 30.41 in 10.0 mi NNW 17.3 mph 24.2 mph N/A   Clear
6:15 PM -13.0 °F -35.2 °F -23.8 °F 59% 30.41 in 10.0 mi NNW 13.8 mph 20.7 mph N/A   Clear
6:35 PM -13.0 °F -36.0 °F -23.8 °F 59% 30.40 in 10.0 mi NNW 15.0 mph 21.9 mph N/A   Clear
6:55 PM -13.0 °F -35.2 °F -23.8 °F 59% 30.41 in 10.0 mi NNW 13.8 mph 20.7 mph N/A   Clear
7:15 PM -13.0 °F -35.2 °F -23.8 °F 59% 30.41 in 10.0 mi NNW 13.8 mph 24.2 mph N/A   Clear
7:35 PM -13.0 °F -35.2 °F -23.8 °F 59% 30.40 in 10.0 mi NNW 13.8 mph - N/A   Clear
7:55 PM -13.0 °F -34.3 °F -23.8 °F 59% 30.40 in 10.0 mi NNW 12.7 mph - N/A   Clear
8:15 PM -13.0 °F -32.4 °F -23.8 °F 59% 30.39 in 10.0 mi NNW 10.4 mph - N/A   Clear
8:35 PM -13.0 °F -31.3 °F -23.8 °F 59% 30.38 in 10.0 mi NNW 9.2 mph - N/A   Clear
8:55 PM -13.0 °F -31.3 °F -23.8 °F 59% 30.38 in 10.0 mi NNW 9.2 mph - N/A   Clear
9:15 PM -14.8 °F -30.8 °F -23.8 °F 64% 30.37 in 10.0 mi NNW 6.9 mph - N/A   Clear
9:35 PM -14.8 °F -29.1 °F -23.8 °F 64% 30.36 in 10.0 mi WNW 5.8 mph - N/A   Clear
9:55 PM -16.6 °F -32.9 °F -23.8 °F 70% 30.36 in 10.0 mi NW 6.9 mph - N/A   Clear
10:15 PM -16.6 °F -29.3 °F -23.8 °F 70% 30.36 in 10.0 mi NNW 4.6 mph - N/A   Clear
10:35 PM -16.6 °F -29.3 °F -23.8 °F 70% 30.34 in 10.0 mi NNW 4.6 mph - N/A   Clear
10:55 PM -16.6 °F -31.3 °F -25.6 °F 64% 30.33 in 10.0 mi NNW 5.8 mph - N/A   Clear
11:15 PM -16.6 °F -29.3 °F -25.6 °F 64% 30.32 in 10.0 mi North 4.6 mph - N/A   Clear
11:35 PM -16.6 °F -26.8 °F -25.6 °F 64% 30.32 in 10.0 mi NNW 3.5 mph - N/A   Clear
11:55 PM -16.6 °F -35.7 °F -23.8 °F 70% 30.30 in 10.0 mi North 9.2 mph - N/A   Clear